[Iaude] MPEC J35: 2024 JK [a=2.16,e=0.58,i=6.5,H=23.3]

mpec at cfa.harvard.edu mpec at cfa.harvard.edu
Fri May 3 06:07:52 EDT 2024


M.P.E.C. 2024-J35                                   Issued 2024 May 3, 10:06 UT

     The Minor Planet Electronic Circulars contain information on unusual
         minor planets, routine data on comets and natural satellites,
         and occasional editorial announcements.  They are published
    on behalf of Division F of the International Astronomical Union by the
          Minor Planet Center, Smithsonian Astrophysical Observatory,
                          Cambridge, MA 02138, U.S.A.
			  
             Prepared using the Tamkin Foundation Computer Network

                              MPC at CFA.HARVARD.EDU
            URL https://www.minorplanetcenter.net/    ISSN 1523-6714

                                    2024 JK                                     


Observations:
     K24J00K*1C2024 05 01.37687015 49 11.489+21 54 11.56         20.75GVEJ035G96
     K24J00K 1C2024 05 01.38204915 49 12.911+21 54 40.43         20.60GVEJ035G96
     K24J00K 1C2024 05 01.38722015 49 14.257+21 55 09.41         20.92GVEJ035G96
     K24J00K 1C2024 05 01.39241015 49 15.690+21 55 38.57         20.69GVEJ035G96
     K24J00K mC2024 05 01.47022915 49 36.984+22 02 50.86         20.62GVEJ035I52
     K24J00K mC2024 05 01.47097915 49 37.196+22 02 54.89         20.72GVEJ035I52
     K24J00K mC2024 05 01.47172715 49 37.427+22 02 59.21         20.47GVEJ035I52
     K24J00K mC2024 05 01.47247615 49 37.592+22 03 02.99         20.84GVEJ035I52
     K24J00K KC2024 05 02.19009815 53 17.33 +23 11 22.1          22.2 GVEJ035H21
     K24J00K KC2024 05 02.19568815 53 18.98 +23 11 54.9          21.6 GVEJ035H21
     K24J00K KC2024 05 02.20127915 53 20.63 +23 12 27.9          21.1 GVEJ035H21
     K24J00K KC2024 05 02.20603015 53 22.03 +23 12 55.9          21.6 GVEJ035H21
     K24J00K KC2024 05 02.20869415 53 23.64 +23 13 11.5          20.6 GXEJ035858
     K24J00K KC2024 05 02.21564815 53 25.72 +23 13 52.7          20.4 GXEJ035858
     K24J00K mC2024 05 02.22003215 53 27.244+23 14 20.54         21.24GVEJ035I52
     K24J00K mC2024 05 02.22055115 53 27.434+23 14 22.38         21.18GVEJ035I52
     K24J00K mC2024 05 02.22106915 53 27.557+23 14 25.94         21.01GVEJ035I52
     K24J00K mC2024 05 02.22158615 53 27.726+23 14 29.26         21.60GVEJ035I52
     K24J00K KC2024 05 02.22266415 53 27.80 +23 14 34.1          20.6 GXEJ035858
     K24J00K KC2024 05 03.40984315 59 52.238+25 13 28.85               VEJ035I52
     K24J00K KC2024 05 03.41105315 59 52.652+25 13 35.98               VEJ035I52
     K24J00K KC2024 05 03.41226215 59 53.045+25 13 43.54         20.93GVEJ035I52
     K24J00K KC2024 05 03.41347015 59 53.394+25 13 50.63         20.66GVEJ035I52

Observer details:
858 Tebbutt Observatory, Edgewood.  Observer F. B. Zoltowski.  0.51-m f/8.1
    Schmidt-Cassegrain + CCD.
G96 Mt. Lemmon Survey.  Observer J. B. Fazekas.  Measurers T. Beuden, V. F.
    Carvajal, D. Fay, J. B. Fazekas, D. C. Fuls, A. R. Gibbs, A. D. Grauer, H.
    Groeller, J. K. Hogan, R. A. Kowalski, S. M. Larson, G. J. Leonard, D.
    Rankin, R. L. Seaman, F. C. Shelly, K. W. Wierzchos.  1.5-m reflector +
    10K CCD.
H21 Astronomical Research Observatory, Westfield.  Observer R. Holmes.
    Measurers T. Linder, R. Holmes, L. Horn.  0.81-m f/4.0 astrograph + CCD.
I52 Steward Observatory, Mt. Lemmon Station.  Observers V. F. Carvajal, G. J.
    Leonard.  Measurers T. Beuden, V. F. Carvajal, D. Fay, J. B. Fazekas, D.
    C. Fuls, A. R. Gibbs, A. D. Grauer, H. Groeller, J. K. Hogan, R. A.
    Kowalski, S. M. Larson, G. J. Leonard, D. Rankin, R. L. Seaman, F. C.
    Shelly, K. W. Wierzchos.  1.0-m prime focus + CCD.

Orbital elements:
2024 JK                                                  Earth MOID = 0.0251 AU
Epoch 2024 Mar. 31.0 TT = JDT 2460400.5                 MPC                     
M 334.01695              (2000.0)            P               Q                  
n   0.31085935     Peri.  122.98804     +0.27186789     +0.96174653             
a   2.1582086      Node   162.69216     -0.91635058     +0.26939454             
e   0.5787656      Incl.    6.49197     -0.29392084     +0.04970100             
P   3.17           H   23.35          G   0.15           U   8                  
Residuals in seconds of arc
240501 G96  0.1-  0.0     240502 H21  0.0   0.0     240502 I52  0.4-  0.1-
240501 G96  0.2+  0.0     240502 H21  0.0   0.1-    240502 I52  0.2-  0.1+
240501 G96  0.5-  0.1+    240502 H21  0.1+  0.1+    240502 858  0.2-  0.1-
240501 G96  0.1-  0.4+    240502 H21  0.1+  0.1+    240503 I52  0.4-  0.5+
240501 I52  0.0   0.0     240502 858  0.4-  0.2-    240503 I52  0.0   0.2+
240501 I52  0.1+  0.2-    240502 858  0.2-  0.1-    240503 I52  0.0   0.3+
240501 I52  0.4+  0.0     240502 I52  0.5-  0.6+    240503 I52  0.6-  0.0
240501 I52  0.2-  0.4-    240502 I52  0.0   0.6-

Ephemeris:
2024 JK                  a,e,i = 2.16, 0.58, 6                   q = 0.9091
Date    TT    R. A. (2000) Decl.     Delta      r    Elong.  Phase     V
2024 04 03    14 42 24.0 -01 26 07   0.4027  1.3674   151.5    20.4    23.1
...
2024 04 18    15 06 59.7 +06 55 22   0.2639  1.2448   152.9    21.6    22.0
...
2024 04 26    15 27 50.8 +14 37 02   0.2040  1.1817   146.5    28.0    21.5
...
2024 05 02    15 52 16.9 +22 53 14   0.1666  1.1363   137.6    36.7    21.2
2024 05 03    15 57 34.8 +24 31 45   0.1611  1.1290   135.7    38.6    21.2
2024 05 04    16 03 21.1 +26 15 07   0.1558  1.1217   133.7    40.5    21.2
...
2024 05 10    16 52 04.4 +38 08 46   0.1304  1.0793   119.2    54.8    21.1
...
2024 05 18    19 05 03.1 +53 30 37   0.1169  1.0276    94.7    78.8    21.5
...
2024 06 02    23 48 54.3 +46 05 33   0.1589  0.9514    62.5   108.9    23.4

A. U. Tomatic                (C) Copyright 2024 MPC           M.P.E.C. 2024-J35





More information about the Iaude mailing list